STARLINK-30463, 57909

Orbit data source: Space-Track

STARLINK-30463, 57909 is a payload satellite owned by SpaceX/Seattle (US) in LEO that was launched on Wed, 20 Sep 2023 UTC via an FALCON 9 launch vehicle from the Air Force Eastern Test Range (AFETR). Payload-class satellites include a variety of spacecraft equipped with specific instruments for various scientific and technological missions. These include communications satellites like Starlink; space stations such as the ISS; scientific satellites like the Hubble; Earth observation satellites from companies like Planet Labs, Umbra, and HawkEye 360; GPS; miniature CubeSats for education and research; and military/defense satellites.

Loading next visibility...
Identifier
57909, 2023-146U
Orbit
LEO
Country
Flag of USUS
Related business
Manufacturer
SpaceX/Seattle
Mission
Operational Commercial Communications
Bus & Motor
STARLINK V2M, Unknown motor
Mass
730 kg wet, ~700 kg dry
Launch date (UTC)
2023-09-20 (3 years ago)
Launch vehicle
FALCON 9
Launch site
Air Force Eastern Test Range (AFETR)
Object type
Payload
Rocket body
Debris
Shape & HBR
Box + 2 Pan, 17.7 m
Radar Cross Section
33.884 m², Large (>1 m²)

Expand to show TLE details & history
Last TLE update: 2 days ago

TLE from 2 days ago
0 STARLINK-30463
1 57909U 23146U   26171.17461490  .00001546  00000-0  65693-4 0  9994
2 57909  43.0036  95.9584 0001016 271.6210  88.4526 15.27583347151662
Epoch: 2026-06-20T04:11Z
TLE epoch observation values (Epoch: 2026-06-20T04:11:26.727Z)
Latitude
0.00003°
Longitude
124.70405°
Altitude
482.796 km
Speed
7.626 km/s
True Right ascension
06h 23m 50s
True Declination
0° 00' 00"
Sunlit
Object was in daylight at epoch
Visualization orbit readout
Latitude
Unknown
Longitude
Unknown
Altitude
Unknown
Speed
Unknown
Apparent Right ascension
Unknown
Apparent Declination
Unknown
Sunlit
N/A
Visualization observer readout
Local Sidereal Time
23:08:39
Azimuth
Unknown
Elevation
Unknown
Doppler factor
Unknown
Orbital elements
Apogee altitude
485.681 km
Perigee altitude
484.286 km
Semi-major axis
6,863.121 km
Eccentricity
0.0001
Inclination
43.0036°
RAAN
95.9584°
Arg. of periapsis
271.621°
True anomaly
88.46424°
Mean anomaly
88.4526°
Eccentric anomaly
88.45842°
Mean motion
3.81734 °/min
Orbital period
94.31 mins
BSTAR
0.000065693
Loading maneuver chart data...
Computing Atmospheric mass density...
Loading historical data...
Loading historical data...
Loading historical data...
Loading historical data...
Loading historical data...
Loading historical data...
Loading historical data...

Documentation

Showing up to 5 results
|